Time,TemperatureF,DewpointF,PressureIn,WindDirection,WindDirectionDegrees,WindSpeedMPH,WindSpeedGustMPH,Humidity,HourlyPrecipIn,Conditions,Clouds,dailyrainin,SoftwareType,DateUTC
2013-01-01 00:11:00,43.4,14.0,30.06,WSW,252,0.0,4.0,30,0.00,,,0.00,weatherlink.com 1.10,2013-01-01 05:11:00,
2013-01-01 00:24:00,42.7,14.0,30.05,North,360,0.0,3.0,31,0.00,,,0.00,weatherlink.com 1.10,2013-01-01 05:24:00,
2013-01-01 00:39:00,44.0,11.0,30.04,SSW,213,1.0,4.0,26,0.00,,,0.00,weatherlink.com 1.10,2013-01-01 05:39:00,
2013-01-01 00:54:00,43.8,12.0,30.05,ESE,103,0.0,3.0,28,0.00,,,0.00,weatherlink.com 1.10,2013-01-01 05:54:00,
2013-01-01 01:09:00,43.0,13.0,30.05,ENE,65,0.0,3.0,30,0.00,,,0.00,weatherlink.com 1.10,2013-01-01 06:09:00,
2013-01-01 01:24:00,42.7,11.0,30.04,East,101,0.0,2.0,27,0.00,,,0.00,weatherlink.com 1.10,2013-01-01 06:24:00,
2013-01-01 01:39:00,42.1,15.0,30.03,East,101,0.0,2.0,33,0.00,,,0.00,weatherlink.com 1.10,2013-01-01 06:39:00,
2013-01-01 01:54:00,41.7,14.0,30.01,ESE,106,0.0,1.0,32,0.00,,,0.00,weatherlink.com 1.10,2013-01-01 06:54:00,
2013-01-01 02:09:00,42.5,12.0,30.02,NE,52,4.0,4.0,29,0.00,,,0.00,weatherlink.com 1.10,2013-01-01 07:09:00,
2013-01-01 02:24:00,43.4,12.0,30.01,SE,126,0.0,5.0,28,0.00,,,0.00,weatherlink.com 1.10,2013-01-01 07:24:00,
2013-01-01 02:39:00,43.4,12.0,30.01,West,278,0.0,2.0,28,0.00,,,0.00,weatherlink.com 1.10,2013-01-01 07:39:00,
2013-01-01 02:54:00,43.7,15.0,30.03,South,179,0.0,1.0,32,0.00,,,0.00,weatherlink.com 1.10,2013-01-01 07:54:00,
2013-01-01 03:09:00,43.5,16.0,30.02,ESE,115,1.0,2.0,33,0.00,,,0.00,weatherlink.com 1.10,2013-01-01 08:09:00,
2013-01-01 03:24:00,43.5,16.0,30.02,SW,235,0.0,4.0,33,0.00,,,0.00,weatherlink.com 1.10,2013-01-01 08:24:00,
2013-01-01 03:39:00,43.5,16.0,30.01,East,82,0.0,4.0,33,0.00,,,0.00,weatherlink.com 1.10,2013-01-01 08:39:00,
2013-01-01 03:54:00,43.4,19.0,30.03,ENE,60,0.0,1.0,37,0.00,,,0.00,weatherlink.com 1.10,2013-01-01 08:54:00,
2013-01-01 04:09:00,42.8,18.0,30.03,East,84,0.0,1.0,37,0.00,,,0.00,weatherlink.com 1.10,2013-01-01 09:09:00,
2013-01-01 04:24:00,42.5,21.0,30.04,West,269,1.0,3.0,42,0.00,,,0.00,weatherlink.com 1.10,2013-01-01 09:24:00,
2013-01-01 04:39:00,42.4,22.0,30.01,NW,313,1.0,4.0,45,0.00,,,0.00,weatherlink.com 1.10,2013-01-01 09:39:00,
2013-01-01 04:54:00,43.1,23.0,30.00,East,92,0.0,7.0,46,0.00,,,0.00,weatherlink.com 1.10,2013-01-01 09:54:00,
2013-01-01 05:09:00,43.0,24.0,29.99,SW,218,5.0,7.0,47,0.00,,,0.00,weatherlink.com 1.10,2013-01-01 10:09:00,
2013-01-01 05:24:00,43.2,25.0,29.97,ESE,119,0.0,1.0,49,0.00,,,0.00,weatherlink.com 1.10,2013-01-01 10:24:00,
2013-01-01 05:40:00,42.8,25.0,29.97,SSE,161,1.0,5.0,49,0.00,,,0.00,weatherlink.com 1.10,2013-01-01 10:40:00,
2013-01-01 05:55:00,42.5,25.0,29.98,SE,138,0.0,2.0,51,0.00,,,0.00,weatherlink.com 1.10,2013-01-01 10:55:00,
2013-01-01 06:10:00,42.1,25.0,29.98,South,186,0.0,2.0,50,0.00,,,0.00,weatherlink.com 1.10,2013-01-01 11:10:00,
2013-01-01 06:25:00,41.8,25.0,29.97,South,186,0.0,1.0,52,0.00,,,0.00,weatherlink.com 1.10,2013-01-01 11:25:00,
2013-01-01 06:40:00,41.7,26.0,29.97,SSW,203,0.0,0.0,53,0.00,,,0.00,weatherlink.com 1.10,2013-01-01 11:40:00,
2013-01-01 06:55:00,41.4,26.0,29.97,South,175,0.0,1.0,54,0.00,,,0.00,weatherlink.com 1.10,2013-01-01 11:55:00,
2013-01-01 07:10:00,41.1,26.0,29.96,South,175,1.0,1.0,56,0.00,,,0.00,weatherlink.com 1.10,2013-01-01 12:10:00,
2013-01-01 07:25:00,41.0,26.0,29.97,East,80,0.0,4.0,55,0.00,,,0.00,weatherlink.com 1.10,2013-01-01 12:25:00,
2013-01-01 07:40:00,40.5,27.0,29.97,NW,321,0.0,5.0,60,0.00,,,0.00,weatherlink.com 1.10,2013-01-01 12:40:00,
2013-01-01 07:55:00,40.4,27.0,29.96,NE,51,1.0,2.0,60,0.00,,,0.00,weatherlink.com 1.10,2013-01-01 12:55:00,
2013-01-01 08:10:00,40.2,28.0,29.96,ENE,76,0.0,2.0,63,0.00,,,0.00,weatherlink.com 1.10,2013-01-01 13:10:00,
2013-01-01 08:25:00,40.4,28.0,29.98,ESE,105,0.0,3.0,62,0.00,,,0.00,weatherlink.com 1.10,2013-01-01 13:25:00,
2013-01-01 08:40:00,41.0,30.0,29.98,East,92,3.0,3.0,64,0.00,,,0.00,weatherlink.com 1.10,2013-01-01 13:40:00,
2013-01-01 08:55:00,41.5,30.0,29.95,ENE,78,0.0,8.0,63,0.00,,,0.00,weatherlink.com 1.10,2013-01-01 13:55:00,
2013-01-01 09:10:00,42.0,31.0,29.96,WSW,257,0.0,5.0,64,0.00,,,0.00,weatherlink.com 1.10,2013-01-01 14:10:00,
2013-01-01 09:25:00,42.7,32.0,29.96,ENE,76,1.0,3.0,66,0.00,,,0.00,weatherlink.com 1.10,2013-01-01 14:25:00,
2013-01-01 09:40:00,43.0,33.0,29.96,East,93,0.0,5.0,68,0.00,,,0.00,weatherlink.com 1.10,2013-01-01 14:40:00,
2013-01-01 09:55:00,43.2,33.0,29.98,ESE,103,0.0,2.0,68,0.00,,,0.00,weatherlink.com 1.10,2013-01-01 14:55:00,
2013-01-01 10:10:00,43.7,34.0,29.94,East,98,1.0,3.0,68,0.00,,,0.00,weatherlink.com 1.10,2013-01-01 15:10:00,
2013-01-01 10:25:00,44.4,36.0,29.98,East,80,1.0,3.0,71,0.00,,,0.00,weatherlink.com 1.10,2013-01-01 15:25:00,
2013-01-01 10:40:00,45.6,37.0,29.95,NE,55,4.0,4.0,71,0.00,,,0.00,weatherlink.com 1.10,2013-01-01 15:40:00,
2013-01-01 10:55:00,46.0,37.0,29.94,South,169,0.0,3.0,71,0.00,,,0.00,weatherlink.com 1.10,2013-01-01 15:55:00,
2013-01-01 11:11:00,48.2,39.0,29.96,WSW,258,0.0,7.0,71,0.00,,,0.00,weatherlink.com 1.10,2013-01-01 16:11:00,
2013-01-01 11:26:00,49.3,39.0,29.95,SSW,208,0.0,7.0,69,0.00,,,0.00,weatherlink.com 1.10,2013-01-01 16:26:00,
2013-01-01 11:40:00,49.5,40.0,29.94,South,171,0.0,6.0,70,0.00,,,0.00,weatherlink.com 1.10,2013-01-01 16:40:00,
2013-01-01 11:55:00,50.1,40.0,29.92,SW,223,0.0,7.0,69,0.00,,,0.00,weatherlink.com 1.10,2013-01-01 16:55:00,
2013-01-01 12:11:00,49.7,40.0,29.89,SSE,162,0.0,3.0,70,0.00,,,0.00,weatherlink.com 1.10,2013-01-01 17:11:00,
2013-01-01 12:26:00,49.0,40.0,29.92,South,173,0.0,6.0,71,0.00,,,0.00,weatherlink.com 1.10,2013-01-01 17:26:00,
2013-01-01 12:40:00,48.5,40.0,29.91,SW,219,1.0,6.0,72,0.00,,,0.00,weatherlink.com 1.10,2013-01-01 17:40:00,
2013-01-01 12:55:00,48.4,40.0,29.91,WSW,251,0.0,7.0,73,0.00,,,0.00,weatherlink.com 1.10,2013-01-01 17:55:00,
2013-01-01 13:11:00,48.5,40.0,29.89,East,101,0.0,5.0,73,0.00,,,0.00,weatherlink.com 1.10,2013-01-01 18:11:00,
2013-01-01 13:26:00,48.8,40.0,29.87,WSW,242,0.0,2.0,73,0.00,,,0.00,weatherlink.com 1.10,2013-01-01 18:26:00,
2013-01-01 13:41:00,48.8,40.0,29.89,South,170,0.0,3.0,73,0.00,,,0.00,weatherlink.com 1.10,2013-01-01 18:41:00,
2013-01-01 13:56:00,48.8,40.0,29.88,WSW,237,0.0,4.0,73,0.00,,,0.00,weatherlink.com 1.10,2013-01-01 18:56:00,
2013-01-01 14:10:00,48.4,40.0,29.87,WSW,239,0.0,6.0,73,0.00,,,0.00,weatherlink.com 1.10,2013-01-01 19:10:00,
2013-01-01 14:26:00,48.4,40.0,29.86,West,262,0.0,1.0,74,0.00,,,0.00,weatherlink.com 1.10,2013-01-01 19:26:00,
2013-01-01 14:41:00,48.1,40.0,29.86,West,263,0.0,0.0,74,0.00,,,0.00,weatherlink.com 1.10,2013-01-01 19:41:00,
2013-01-01 14:56:00,48.1,41.0,29.87,West,263,0.0,0.0,75,0.00,,,0.00,weatherlink.com 1.10,2013-01-01 19:56:00,
2013-01-01 15:11:00,48.2,40.0,29.89,SSW,206,0.0,6.0,73,0.00,,,0.00,weatherlink.com 1.10,2013-01-01 20:11:00,
2013-01-01 15:26:00,48.2,40.0,29.89,WSW,255,2.0,2.0,74,0.00,,,0.00,weatherlink.com 1.10,2013-01-01 20:26:00,
2013-01-01 15:41:00,48.2,40.0,29.90,South,172,1.0,4.0,73,0.00,,,0.00,weatherlink.com 1.10,2013-01-01 20:41:00,
2013-01-01 15:58:00,48.1,40.0,29.89,South,181,0.0,3.0,74,0.00,,,0.00,weatherlink.com 1.10,2013-01-01 20:58:00,
2013-01-01 16:11:00,48.1,40.0,29.90,SSE,158,0.0,1.0,74,0.00,,,0.00,weatherlink.com 1.10,2013-01-01 21:11:00,
2013-01-01 16:26:00,47.8,40.0,29.90,SW,232,0.0,4.0,74,0.00,,,0.00,weatherlink.com 1.10,2013-01-01 21:26:00,
2013-01-01 16:41:00,47.6,39.0,29.91,South,182,0.0,3.0,73,0.00,,,0.00,weatherlink.com 1.10,2013-01-01 21:41:00,
2013-01-01 17:11:00,47.3,39.0,29.90,WSW,254,0.0,4.0,73,0.00,,,0.00,weatherlink.com 1.10,2013-01-01 22:11:00,
2013-01-01 17:26:00,47.2,39.0,29.90,SW,217,0.0,4.0,74,0.00,,,0.00,weatherlink.com 1.10,2013-01-01 22:26:00,
2013-01-01 17:41:00,47.3,39.0,29.91,West,279,0.0,6.0,74,0.00,,,0.00,weatherlink.com 1.10,2013-01-01 22:41:00,
2013-01-01 17:56:00,47.0,39.0,29.91,SSW,213,0.0,6.0,74,0.00,,,0.00,weatherlink.com 1.10,2013-01-01 22:56:00,
2013-01-01 18:11:00,46.6,39.0,29.93,West,279,0.0,7.0,74,0.00,,,0.00,weatherlink.com 1.10,2013-01-01 23:11:00,
2013-01-01 18:26:00,46.1,39.0,29.93,SE,139,0.0,0.0,75,0.00,,,0.00,weatherlink.com 1.10,2013-01-01 23:26:00,
2013-01-01 18:41:00,45.7,38.0,29.93,SE,139,0.0,2.0,75,0.00,,,0.00,weatherlink.com 1.10,2013-01-01 23:41:00,
2013-01-01 18:56:00,45.1,38.0,29.95,SE,139,0.0,0.0,76,0.00,,,0.00,weatherlink.com 1.10,2013-01-01 23:56:00,
2013-01-01 19:11:00,44.8,38.0,29.94,SE,139,0.0,1.0,77,0.00,,,0.00,weatherlink.com 1.10,2013-01-02 00:11:00,
2013-01-01 19:41:00,44.4,38.0,29.93,SE,139,0.0,0.0,77,0.00,,,0.00,weatherlink.com 1.10,2013-01-02 00:41:00,
2013-01-01 19:56:00,44.4,38.0,29.93,ESE,120,0.0,1.0,77,0.00,,,0.00,weatherlink.com 1.10,2013-01-02 00:56:00,
2013-01-01 20:11:00,44.7,37.0,29.92,East,100,0.0,3.0,73,0.00,,,0.00,weatherlink.com 1.10,2013-01-02 01:11:00,
2013-01-01 20:26:00,44.7,37.0,29.91,East,100,0.0,1.0,73,0.00,,,0.00,weatherlink.com 1.10,2013-01-02 01:26:00,
2013-01-01 20:41:00,44.5,38.0,29.91,East,100,0.0,0.0,77,0.00,,,0.00,weatherlink.com 1.10,2013-01-02 01:41:00,
2013-01-01 20:56:00,44.0,38.0,29.93,East,100,0.0,0.0,79,0.01,,,0.01,weatherlink.com 1.10,2013-01-02 01:56:00,
2013-01-01 21:11:00,43.1,38.0,29.92,East,101,0.0,1.0,83,0.01,,,0.01,weatherlink.com 1.10,2013-01-02 02:11:00,
2013-01-01 21:26:00,42.2,37.0,29.93,SW,224,0.0,2.0,82,0.01,,,0.01,weatherlink.com 1.10,2013-01-02 02:26:00,
2013-01-01 21:41:00,42.2,37.0,29.94,SW,221,1.0,5.0,82,0.01,,,0.01,weatherlink.com 1.10,2013-01-02 02:41:00,
2013-01-01 21:56:00,42.0,38.0,29.95,WSW,251,0.0,5.0,85,0.02,,,0.03,weatherlink.com 1.10,2013-01-02 02:56:00,
2013-01-01 22:11:00,41.7,38.0,29.95,WSW,246,0.0,0.0,87,0.03,,,0.04,weatherlink.com 1.10,2013-01-02 03:11:00,
2013-01-01 22:26:00,41.4,38.0,29.95,WSW,246,0.0,2.0,89,0.04,,,0.05,weatherlink.com 1.10,2013-01-02 03:26:00,
2013-01-01 22:41:00,41.1,38.0,29.95,WSW,240,0.0,2.0,90,0.04,,,0.05,weatherlink.com 1.10,2013-01-02 03:41:00,
2013-01-01 22:56:00,40.8,39.0,29.95,WSW,240,0.0,1.0,92,0.03,,,0.06,weatherlink.com 1.10,2013-01-02 03:56:00,
2013-01-01 23:11:00,40.5,39.0,29.95,WSW,240,0.0,0.0,94,0.02,,,0.06,weatherlink.com 1.10,2013-01-02 04:11:00,
2013-01-01 23:26:00,40.1,39.0,29.95,WSW,240,0.0,1.0,95,0.02,,,0.07,weatherlink.com 1.10,2013-01-02 04:26:00,
2013-01-01 23:41:00,40.0,39.0,29.95,WSW,240,0.0,0.0,96,0.02,,,0.07,weatherlink.com 1.10,2013-01-02 04:41:00,
2013-01-01 23:56:00,39.8,39.0,29.95,WSW,240,0.0,0.0,96,0.01,,,0.07,weatherlink.com 1.10,2013-01-02 04:56:00,